Location: Unspecified
(0.0000°N, 0.0000°E)
Time: 05:32:12
(UTC+00:00)

Vanguard 1 Rocket - Pass Details

Date: 27 November 2019
Orbit: 653 x 4224 km, 34.3° (Epoch: 09 July)

Event Time Altitude Azimuth Distance (km) Brightness Sun altitude
Rises 22:01:57 0° 245° (WSW) 7,655 12.6 -56.6°
Reaches altitude 10° 22:08:15 10° 251° (WSW) 6,111 11.9 -57.8°
Enters shadow 22:18:07 32° 273° (W) 3,609 10.4 -59.5°
Maximum altitude 22:23:43 43° 316° (NW) 2,588 - -60.5°
Drops below altitude 10° 22:31:59 10° 27° (NNE) 3,338 - -61.9°
Sets 22:34:23 0° 35° (NE) 4,000 - -62.3°
